Location: Haliburton Scout Reserve
(45.0900°N, 78.3200°W)
Time: 08:55:06
(UTC-04:00)

S-56A Canister/Altair - Pass Details

Date: 07 February 2023
Orbit: 639 x 2493 km, 38.9° (Epoch: 27 March)

Event Time Altitude Azimuth Distance (km) Brightness Sun altitude
Rises 16:38:58 0° 260° (W) 3,650 12.6 7.2°
Reaches altitude 10° 16:44:45 10° 220° (SW) 3,179 12.3 6.3°
Maximum altitude 16:45:42 10° 213° (SSW) 3,241 12.0 6.2°
Drops below altitude 10° 16:46:41 10° 206° (SSW) 3,344 11.8 6.0°
Sets 16:54:22 0° 170° (S) 4,956 11.9 4.8°
